User: anonymous   Login
Location: Baia de Cri?
(46.1667°N, 22.7167°E)
Time: 17:00:46
(UTC+00:00)
Language:

Hubble Space Telescope - Orbit

View from above orbital plane
View from above orbital plane
View from above satellite
View from above satellite

Ground track
Ground track

The orbit is defined by the following mean orbital elements,

1 20580U          26101.49678816 +.00000000 +00000-0 +19678-3 0 00001
2 20580  28.4727 176.1109 0002351 124.7983 235.2834 15.30022712    07
Epoch (UTC): 11 April 2026 11:55:22
Eccentricity: 0.0002351
inclination: 28.4727°
perigee height: 474 km
apogee height: 477 km
right ascension of ascending node: 176.1109°
argument of perigee: 124.7983°
revolutions per day: 15.30022712
mean anomaly at epoch: 235.2834°

The dashed part of the orbit path shows where the satellite is in the earth's shadow,  

DLR